Find Starlink 32587

NORAD ID: 62180 Int'l Des: 2024-225 Owner: SPXS Country: US Constellation: starlink operational
LEOCIRCULAR

当前视图

正在加载3D地球...

About Starlink 32587

Starlink 32587 (NORAD 62180) is a starlink constellation satellite (v2 mini) launched Nov 30, 2024 by SPXS of US. It operates in LEO, CIRCULAR orbit with a mass of 730.00 kg.

即将过境

Passes for default location (London). Set your location on the main map for personalized predictions.

高度历史

Loading altitude history...

两行轨道根数

1 62180U 24225T 26264.07106808 .00008366 00000-0 70789-3 0 9999
2 62180 70.0034 31.6457 0002994 250.9746 109.1089 14.98342342 99147
Epoch: Sep 21, 2026 • Age: 18 hours

当前状态

高度 574.9 km
远地点 / 近地点 N/A
速度 7.57 km/s
星下点 3.32°N, 100.13°E
发射日期 Nov 30, 2024
运行时间 1.8 years
类型 internet

技术详情

分类 Payload
质量 730.00 kg
干质量 700.00 kg
长度 0.30 m
跨度 29.00 m
形状 ? Box + pan
制造商 SPXS
平台类型 Starlink V2M
阶段状态 In Orbit
所有者/国家 SPXS/US

Most Searched